Temp
3 4 4 3 4 4 4 4 5 5 5 7 7 8 8 8 8 8 8 8 7 7 7 7 6 6 5 5 5 4 4 4 4 3 3 3 3 3 1 2 2 1 2 3 3 3 3
4 4 4 3 4 4 4 4 4 4 5 7 8 8 8 8 8 8 8 8 7 7 7 6 6 6 6 5 4 4 3 3 3 3 3 3 3 3 2 2 1 2 2 2 2 2 3
4 4 4 4 5 4 5 5 5 4 5 8 8 8 8 9 8 8 8 7 7 7 6 6 6 5 5 5 4 4 4 4 4 3 3 3 3 3 3 1 3 2 1 1 2 2 2
4 5 5 5 4 4 4 5 5 5 5 8 8 8 8 8 8 8 7 7 7 6 6 6 5 5 5 4 4 4 4 4 3 3 3 3 3 3 2 3 1 0 -0 -3 2 3 3
7 6 5 5 6 4 4 5 5 5 5 8 8 8 8 8 8 7 7 7 6 6 5 5 5 5 4 4 4 4 4 3 3 4 4 4 3 3 2 -3 -3 -2 -3 -2 1 3 2
7 7 7 7 7 6 5 5 6 6 6 8 8 8 8 8 7 7 6 5 5 5 5 5 5 4 4 5 4 3 3 3 3 3 4 3 2 -5 -5 -5 -4 -1 -2 -0 -0 1 2
7 7 7 7 7 7 5 4 6 5 6 7 8 8 8 7 7 7 6 5 5 5 5 5 5 5 4 4 4 3 3 3 3 2 -1 1 -4 -5 -2 -1 0 -1 -1 -1 0 2 1
8 7 7 7 7 7 6 5 6 5 6 7 7 7 8 7 6 6 6 5 5 4 4 4 5 5 4 4 3 3 3 3 1 -0 -1 -3 -7 -1 0 1 0 -1 -1 -2 0 2 1
8 7 7 7 7 7 7 6 5 6 6 6 7 7 7 7 6 7 6 5 5 4 4 4 4 4 4 4 3 3 3 2 1 0 -1 -5 -0 1 0 -0 -2 -2 -2 -2 -1 0 1
8 7 7 7 7 7 7 6 7 6 5 6 6 7 7 7 6 6 5 5 4 4 2 4 4 4 4 4 3 3 3 2 1 0 -1 -2 0 1 -0 -1 -3 -6 -0 -0 -1 -1 -3
9 8 7 8 7 7 7 6 6 6 5 6 8 7 7 7 7 6 5 5 4 4 5 4 4 4 4 3 3 3 3 2 1 0 -3 -0 -1 -1 -1 0 -0 -3 -1 -1 -1 -3 -3
9 9 9 8 8 7 7 7 6 6 6 7 8 7 7 7 7 6 5 4 4 4 5 4 4 3 2 3 3 3 3 2 1 -1 -1 -1 0 -0 1 0 -0 -2 -6 -6 -8 -5 -9
8 9 9 9 8 8 7 7 6 6 6 7 7 7 7 7 6 6 5 4 4 4 6 5 3 1 0 1 2 2 0 -4 -5 -5 -4 -2 -1 0 -0 -2 -2 -8 -10 -10 -9 -10 -6
8 8 8 8 8 8 8 7 7 7 7 7 7 6 6 6 6 5 5 3 4 6 4 1 1 0 1 2 2 1 -0 -5 -3 -7 -10 -6 -3 -2 -2 -5 -6 -10 -10 -11 -10 -10 -5
8 8 8 8 8 8 8 8 7 7 7 7 7 6 6 6 5 5 5 1 5 3 2 1 1 1 1 1 -0 -1 -1 -6 -6 -8 -7 -10 -3 -1 -3 -5 -5 -8 -9 -8 -9 -10 -5
8 8 8 8 8 8 8 8 7 7 7 7 6 5 5 5 5 5 2 5 3 3 1 1 1 -0 -3 -0 -2 -6 -2 -5 -3 -5 -7 -7 -8 -2 -2 -3 -5 -7 -6 -9 -12 -12 -8
7 7 8 8 8 8 8 7 7 6 6 6 5 5 5 5 5 4 1 -0 2 3 2 -0 -1 -2 -2 -3 -1 -2 -3 -1 -2 -3 -5 -9 -8 -4 -2 -6 -8 -8 -9 -13 -12 -10 -10
7 7 7 7 8 8 7 7 7 6 6 6 5 2 5 5 3 -0 -2 -1 2 1 1 0 -1 -1 -3 -3 -4 -3 -3 -2 -1 -3 -4 -6 -8 -7 -6 -10 -10 -12 -11 -14 -9 -11 -13
7 7 7 7 7 8 7 7 6 5 4 4 3 4 4 4 1 0 1 1 1 -0 -0 -1 -1 -1 -2 -3 -5 -3 -3 -1 -1 -5 -6 -5 -8 -8 -6 -8 -7 -8 -12 -13 -14 -17 -13
7 7 7 7 7 7 7 6 6 5 4 3 3 0 4 4 3 1 -1 0 0 1 0 -0 -1 -1 -3 -4 -3 -4 -4 -2 -2 -2 -1 -2 -5 -6 -5 -6 -11 -10 -11 -10 -10 -11 -14
7 6 6 6 6 6 7 6 6 5 3 2 3 1 2 -0 0 -1 -1 0 0 0 -1 -0 -2 -2 -3 -4 -4 -4 -2 -3 -2 -2 -3 -4 -5 -7 -5 -4 -6 -6 -6 -10 -10 -10 -8
6 5 5 5 5 5 5 5 5 4 2 2 3 1 0 -0 0 -1 -1 0 -0 -0 -2 -2 -1 -1 -2 -3 -2 -2 -2 -3 -3 -6 -6 -7 -6 -9 -7 -6 -5 -6 -5 -7 -9 -10 -12
5 5 4 3 3 3 4 4 4 3 1 2 2 2 2 1 -0 -0 0 0 0 -0 0 1 -0 -1 -2 -1 -0 0 -0 -1 -2 -4 -5 -7 -6 -8 -6 -13 -11 -6 -7 -9 -14 -20 -14
5 5 4 4 4 4 5 5 4 2 1 1 2 2 1 2 1 1 1 1 1 0 2 0 -0 -2 -1 -1 -1 -2 -2 -4 -5 -4 -3 -4 -5 -6 -8 -13 -10 -8 -17 -15 -12 -18 -18
5 5 5 5 5 5 5 4 3 2 2 0 1 2 1 1 1 1 1 1 2 1 1 -0 1 0 -1 -3 -3 -3 -5 -5 -5 -4 -5 -4 -4 -5 -6 -12 -10 -8 -13 -14 -13 -11 -18
4 4 4 4 4 4 4 3 3 3 2 1 0 1 2 1 2 1 1 1 1 1 0 -0 -0 -0 -2 -3 -3 -4 -3 -4 -3 -5 -6 -6 -5 -4 -10 -7 -9 -10 -18 -16 -16 -11 -19
4 4 4 4 3 3 3 3 3 3 2 2 1 0 1 0 1 1 1 1 0 -0 -1 -3 -4 -4 -4 -3 -3 -3 -4 -3 -4 -6 -6 -6 -7 -5 -6 -6 -8 -15 -16 -14 -11 -10 -16
3 3 3 3 4 3 3 3 3 3 3 2 1 1 0 -0 0 0 1 1 -0 -1 -1 -2 -3 -4 -4 -3 -3 -3 -3 -5 -7 -6 -7 -6 -6 -7 -6 -7 -7 -13 -14 -12 -14 -15 -14
2 2 2 2 2 2 3 3 3 3 3 2 2 1 1 -0 -0 0 1 1 0 1 0 -2 -1 -4 -4 -4 -4 -4 -3 -6 -6 -5 -9 -6 -5 -7 -6 -7 -16 -13 -14 -13 -13 -14 -15
Height
1539 1538 1536 1534 1532 1529 1526 1524 1521 1518 1515 1513 1511 1510 1508 1507 1505 1504 1503 1502 1501 1501 1502 1503 1504 1505 1506 1508 1510 1510 1510 1510 1509 1509 1508 1508 1509 1508 1508 1506 1506 1505 1500 1497 1496 1495 1493
1541 1539 1536 1534 1532 1529 1526 1523 1520 1518 1514 1512 1511 1509 1507 1506 1504 1503 1501 1501 1500 1500 1502 1503 1504 1506 1506 1508 1509 1509 1509 1508 1508 1507 1506 1507 1508 1507 1505 1504 1505 1500 1498 1493 1492 1488 1486
1542 1539 1536 1534 1531 1529 1526 1523 1520 1517 1513 1511 1511 1509 1507 1506 1504 1502 1500 1499 1499 1501 1501 1503 1504 1506 1507 1510 1508 1509 1508 1507 1505 1505 1504 1504 1506 1506 1504 1503 1499 1497 1495 1490 1484 1482 1482
1541 1538 1536 1533 1531 1529 1527 1523 1519 1516 1513 1511 1511 1509 1507 1505 1503 1501 1500 1499 1500 1501 1502 1504 1505 1506 1507 1509 1508 1508 1506 1504 1503 1501 1500 1500 1503 1503 1501 1500 1498 1498 1495 1499 1481 1481 1479
1541 1538 1536 1534 1531 1529 1527 1523 1520 1516 1513 1511 1511 1508 1506 1504 1503 1501 1500 1500 1501 1502 1504 1505 1506 1507 1509 1508 1508 1506 1504 1502 1499 1498 1497 1498 1500 1500 1501 1504 1507 1502 1505 1496 1481 1477 1477
1541 1539 1536 1534 1531 1528 1525 1523 1519 1516 1513 1512 1510 1507 1506 1503 1502 1501 1501 1501 1502 1503 1504 1505 1506 1511 1510 1508 1505 1504 1503 1501 1498 1496 1494 1497 1499 1503 1505 1511 1517 1500 1497 1487 1486 1476 1470
1541 1539 1536 1534 1531 1527 1524 1521 1518 1516 1513 1510 1509 1507 1505 1502 1501 1500 1500 1502 1506 1506 1504 1504 1506 1505 1506 1506 1504 1503 1501 1498 1497 1497 1500 1499 1510 1513 1502 1499 1496 1496 1494 1487 1470 1475 1469
1541 1538 1536 1533 1531 1528 1523 1520 1517 1514 1512 1510 1507 1505 1504 1502 1500 1499 1499 1499 1499 1501 1504 1503 1504 1504 1503 1503 1502 1502 1502 1500 1499 1501 1499 1505 1517 1498 1495 1493 1494 1493 1491 1486 1464 1468 1468
1539 1537 1535 1532 1530 1527 1523 1520 1516 1513 1511 1507 1505 1503 1502 1500 1499 1499 1498 1497 1497 1498 1502 1503 1503 1502 1503 1503 1501 1501 1501 1499 1499 1499 1500 1512 1498 1494 1492 1492 1495 1491 1491 1483 1479 1454 1463
1536 1534 1533 1531 1528 1526 1523 1520 1516 1512 1509 1505 1503 1501 1500 1498 1499 1496 1496 1495 1496 1498 1506 1503 1502 1502 1502 1500 1500 1499 1498 1499 1499 1500 1498 1499 1493 1492 1492 1491 1492 1502 1478 1476 1469 1471 1469
1536 1533 1530 1528 1527 1525 1522 1519 1516 1511 1507 1503 1500 1499 1499 1497 1497 1496 1496 1495 1497 1499 1509 1503 1500 1499 1498 1500 1499 1499 1498 1496 1496 1497 1502 1495 1493 1493 1493 1488 1486 1488 1478 1469 1462 1466 1464
1536 1533 1529 1527 1525 1523 1520 1518 1514 1510 1506 1502 1499 1498 1498 1496 1494 1494 1493 1494 1498 1504 1508 1498 1498 1499 1499 1496 1497 1496 1496 1496 1495 1494 1494 1492 1489 1490 1486 1484 1482 1481 1482 1472 1477 1470 1496
1536 1532 1529 1526 1524 1521 1518 1515 1512 1508 1504 1501 1498 1498 1497 1495 1494 1491 1492 1495 1502 1504 1494 1495 1497 1498 1500 1497 1494 1494 1496 1503 1507 1513 1507 1496 1487 1485 1485 1488 1483 1491 1500 1515 1503 1508 1481
1535 1532 1528 1524 1521 1518 1516 1513 1510 1507 1503 1499 1497 1496 1496 1495 1493 1492 1492 1496 1508 1491 1493 1498 1497 1498 1496 1494 1494 1493 1495 1506 1501 1508 1526 1517 1500 1487 1486 1492 1496 1502 1506 1527 1534 1520 1471
1534 1530 1527 1523 1519 1516 1513 1511 1508 1505 1501 1498 1495 1494 1494 1494 1492 1492 1492 1506 1493 1496 1498 1499 1495 1496 1496 1494 1495 1495 1493 1501 1499 1500 1513 1527 1497 1482 1484 1485 1489 1498 1508 1499 1510 1504 1480
1532 1529 1525 1521 1517 1514 1511 1508 1505 1503 1500 1496 1494 1492 1492 1492 1491 1491 1493 1489 1491 1492 1495 1497 1499 1499 1508 1496 1499 1506 1494 1492 1491 1493 1493 1506 1516 1481 1482 1484 1487 1490 1494 1511 1521 1531 1501
1530 1526 1523 1519 1515 1511 1508 1505 1502 1500 1497 1494 1492 1490 1490 1490 1490 1490 1497 1497 1491 1490 1492 1496 1499 1501 1499 1500 1495 1498 1491 1485 1485 1491 1493 1501 1508 1488 1481 1488 1494 1495 1502 1513 1512 1506 1509
1526 1523 1519 1516 1512 1509 1505 1502 1500 1497 1495 1493 1490 1490 1488 1488 1491 1490 1495 1489 1488 1488 1489 1491 1492 1493 1496 1495 1498 1495 1489 1483 1481 1484 1491 1493 1501 1500 1489 1486 1485 1492 1498 1508 1504 1509 1511
1520 1517 1515 1512 1509 1505 1502 1499 1497 1494 1492 1491 1489 1486 1486 1486 1492 1490 1487 1486 1486 1487 1486 1488 1488 1487 1487 1491 1500 1487 1483 1476 1478 1482 1489 1489 1500 1505 1487 1492 1486 1487 1493 1495 1502 1514 1504
1514 1512 1509 1506 1503 1500 1497 1494 1493 1492 1490 1490 1489 1487 1482 1481 1480 1482 1485 1482 1483 1479 1479 1479 1479 1481 1485 1487 1485 1483 1481 1475 1475 1475 1476 1479 1482 1483 1480 1474 1487 1488 1486 1484 1485 1491 1494
1507 1504 1502 1499 1496 1493 1491 1489 1487 1487 1487 1488 1486 1481 1478 1479 1476 1477 1480 1477 1475 1476 1475 1474 1474 1472 1476 1483 1481 1477 1472 1473 1471 1469 1470 1474 1473 1474 1464 1462 1467 1462 1460 1474 1473 1467 1462
1499 1496 1494 1491 1489 1487 1485 1483 1481 1482 1483 1484 1481 1478 1476 1473 1471 1474 1474 1469 1468 1465 1468 1468 1465 1460 1465 1467 1459 1463 1463 1466 1465 1465 1466 1468 1466 1472 1465 1461 1458 1454 1446 1449 1454 1458 1461
1491 1489 1485 1483 1482 1480 1479 1476 1475 1475 1477 1476 1473 1471 1471 1464 1464 1467 1460 1457 1456 1458 1454 1450 1451 1456 1457 1446 1447 1447 1449 1450 1452 1457 1459 1464 1464 1471 1454 1477 1471 1449 1431 1439 1453 1462 1450
1482 1480 1478 1476 1475 1473 1472 1470 1468 1466 1467 1466 1465 1465 1463 1451 1453 1451 1447 1447 1447 1447 1444 1443 1445 1447 1440 1441 1443 1444 1444 1443 1442 1441 1446 1448 1455 1458 1463 1477 1474 1431 1440 1438 1436 1444 1443
1470 1469 1467 1466 1464 1462 1461 1460 1458 1458 1458 1457 1458 1457 1453 1439 1440 1439 1440 1438 1436 1435 1435 1433 1432 1431 1433 1438 1442 1442 1445 1441 1432 1430 1434 1436 1443 1446 1451 1475 1444 1423 1433 1438 1436 1428 1428
1458 1456 1455 1454 1452 1451 1450 1449 1448 1448 1448 1447 1446 1448 1445 1436 1424 1430 1429 1428 1426 1425 1425 1423 1424 1424 1427 1432 1436 1437 1434 1431 1425 1430 1431 1433 1434 1437 1460 1444 1447 1422 1430 1428 1431 1430 1420
1448 1446 1444 1443 1441 1440 1438 1437 1436 1436 1436 1436 1433 1436 1436 1428 1418 1423 1421 1419 1418 1418 1417 1418 1419 1422 1423 1426 1427 1429 1428 1420 1423 1426 1428 1432 1435 1425 1429 1426 1421 1420 1423 1427 1437 1420 1417
1437 1435 1433 1432 1431 1430 1428 1427 1426 1425 1426 1426 1421 1424 1426 1418 1409 1413 1413 1413 1412 1411 1410 1410 1417 1418 1421 1421 1420 1416 1414 1414 1418 1412 1417 1416 1423 1426 1422 1428 1415 1412 1425 1424 1413 1413 1416
1427 1425 1422 1420 1420 1418 1417 1417 1416 1416 1415 1415 1413 1412 1413 1413 1401 1399 1400 1399 1400 1402 1401 1400 1396 1398 1400 1406 1408 1406 1402 1409 1405 1404 1409 1408 1399 1406 1406 1401 1406 1406 1407 1409 1410 1411 1416
Wind_Speed
12 13 14 12 12 11 14 15 15 16 13 8 10 11 9 8 7 7 5 4 1 3 7 8 12 12 10 7 4 2 6 10 5 6 10 16 12 8 3 3 14 8 8 13 19 23 21
15 15 14 14 15 15 15 15 16 16 14 7 10 12 8 9 8 7 5 3 1 6 9 10 13 10 7 4 4 2 4 7 10 14 12 6 4 7 9 2 1 7 19 21 21 28 26
13 13 14 14 15 16 16 17 17 18 16 8 8 12 9 9 8 7 5 2 6 9 10 12 12 10 8 6 3 2 9 16 14 10 11 10 10 7 6 6 15 10 16 16 18 8 5
13 14 15 15 14 15 16 18 18 19 18 10 9 13 11 8 9 7 5 8 9 9 11 10 10 7 5 7 4 9 6 9 14 18 9 6 6 12 12 12 8 5 4 4 4 16 7
15 14 13 14 15 14 15 18 20 20 18 13 12 12 13 9 7 5 6 9 9 10 12 10 7 4 3 3 6 7 9 15 22 5 7 7 11 10 8 2 5 3 6 6 13 4 8
16 16 15 15 14 15 15 17 18 19 18 12 14 14 13 9 8 4 7 8 10 13 8 7 7 3 4 3 10 2 8 19 4 11 7 4 1 2 4 4 3 9 11 10 13 6 19
14 14 14 14 13 12 14 14 14 18 19 13 11 15 14 7 9 4 6 6 6 3 4 2 5 1 2 6 0 3 13 12 8 4 4 4 4 6 9 7 9 6 9 17 22 13 18
13 13 13 13 15 14 13 14 13 15 16 15 9 11 12 6 8 7 2 4 6 4 4 5 3 1 1 7 3 4 11 7 4 2 4 6 2 6 4 7 5 8 12 16 22 5 13
12 12 13 12 14 14 14 14 14 14 15 17 13 7 11 6 3 8 4 2 5 7 4 4 4 3 1 5 3 3 9 1 1 3 2 5 7 11 3 5 6 6 5 10 14 30 16
17 12 10 11 12 15 17 18 17 14 17 20 16 4 9 7 4 10 5 2 7 6 4 3 3 3 1 2 2 2 5 2 1 1 5 5 4 5 9 8 2 4 6 13 21 14 8
19 15 12 12 12 14 15 15 17 16 19 21 15 1 6 9 6 5 4 3 9 3 3 4 3 3 3 3 1 5 2 3 1 3 6 6 3 6 4 3 3 9 11 19 20 14 6
21 18 14 10 11 12 13 14 17 17 18 20 12 3 5 10 9 7 4 7 7 4 4 2 3 1 3 1 3 3 1 3 3 1 3 7 7 4 2 6 3 8 6 11 3 1 2
23 21 18 13 12 13 14 15 16 18 19 19 9 3 2 12 8 7 6 7 3 4 2 1 2 2 1 3 2 4 2 4 2 5 4 6 3 2 3 4 3 10 7 5 7 5 4
22 22 21 18 16 14 15 15 16 18 19 19 7 2 2 10 7 6 2 3 4 1 2 2 1 4 2 1 2 1 3 2 1 4 3 2 6 1 1 5 5 1 5 4 4 4 10
24 24 21 20 18 16 15 15 15 17 17 18 8 3 3 8 6 5 1 3 5 4 2 4 4 2 2 2 1 3 4 5 7 6 5 3 5 2 1 3 5 4 2 4 2 3 5
23 24 24 23 22 19 16 16 16 16 15 17 6 4 4 4 4 4 3 3 2 3 5 2 3 3 3 3 3 3 3 4 5 6 4 4 5 4 4 4 3 5 2 3 2 4 5
23 22 23 24 23 23 19 16 15 16 16 16 4 2 4 5 3 1 3 5 3 5 8 6 5 3 6 3 3 3 4 3 5 7 6 5 4 5 3 4 6 1 2 4 2 3 4
25 25 23 23 23 23 21 17 15 15 15 14 4 1 5 3 1 1 2 4 3 5 6 5 4 7 6 6 4 5 6 6 12 12 6 7 4 4 10 4 3 4 6 5 3 6 4
27 26 26 25 24 23 21 19 15 13 13 13 10 4 7 4 2 2 2 3 5 5 5 6 6 7 4 6 2 7 4 4 18 8 7 5 2 3 7 5 3 3 5 4 3 2 6
29 29 28 27 26 25 22 18 16 13 10 9 5 2 5 7 4 5 3 4 4 10 6 8 5 6 4 4 7 5 5 4 15 14 10 11 7 8 8 7 4 3 5 6 6 4 4
31 30 30 29 27 25 23 20 16 12 10 6 4 4 4 2 4 4 5 5 5 4 9 15 3 10 8 5 3 7 10 8 10 12 5 6 7 8 15 14 8 14 18 11 14 10 10
32 31 30 28 26 24 22 21 19 13 10 12 5 5 4 4 5 6 7 6 8 7 9 6 11 11 14 10 13 9 7 5 6 1 8 4 5 3 7 12 16 18 21 15 18 10 9
32 32 28 25 23 22 22 22 21 17 16 13 14 20 11 7 4 5 7 8 9 8 12 17 17 12 13 25 29 28 21 14 11 8 9 7 4 3 6 2 5 11 17 12 5 4 8
35 34 31 28 27 25 25 25 24 23 22 27 22 17 9 9 10 10 6 16 14 17 20 13 20 10 8 13 11 9 18 19 18 17 18 7 6 4 3 2 2 6 2 3 8 5 9
37 38 38 37 36 35 33 31 28 27 25 30 32 29 15 9 14 14 19 17 20 27 21 23 26 26 17 8 2 3 3 4 6 14 18 17 8 4 3 4 7 7 5 6 7 8 9
37 37 36 35 35 36 36 33 30 29 29 29 35 36 31 13 13 26 15 21 14 12 9 13 12 19 19 3 3 5 5 3 3 2 2 10 12 8 4 4 6 6 3 6 4 6 6
29 30 31 33 34 34 34 32 29 27 27 32 37 35 33 19 28 26 11 9 9 5 3 3 6 6 12 3 4 5 5 5 5 6 6 4 2 13 10 8 8 4 7 8 4 6 10
29 29 29 28 28 31 31 30 30 29 25 27 38 38 36 22 35 29 26 20 10 6 4 6 5 4 3 5 5 5 5 7 2 4 7 9 8 5 6 5 12 15 7 9 4 10 13
33 32 31 30 30 29 29 29 29 28 28 25 35 36 38 33 25 28 29 32 38 39 22 17 7 8 11 4 5 3 4 3 4 4 0 4 6 5 10 5 1 25 2 11 11 15 12
Wind_Direction
46 45 37 34 36 27 26 24 21 21 23 43 28 17 20 15 20 6 348 335 282 140 137 134 141 140 132 109 100 42 329 340 324 322 333 327 309 310 259 291 309 271 276 291 302 301 295
46 44 43 39 37 32 28 21 20 18 19 27 34 24 22 10 14 1 344 341 124 141 138 134 146 145 135 92 86 24 311 306 304 314 325 340 302 313 279 274 274 272 296 292 297 288 280
37 34 33 31 29 26 22 18 19 15 12 13 23 19 19 12 15 4 356 77 124 134 129 137 147 143 119 124 174 251 300 303 302 317 306 294 285 292 291 295 288 283 299 298 282 277 254
30 30 28 29 26 24 18 19 19 16 13 21 26 14 15 20 21 20 59 109 123 120 126 142 152 148 113 162 240 303 336 345 340 321 303 309 295 282 276 269 302 317 294 349 254 312 273
28 26 22 20 20 24 17 13 19 19 15 39 21 17 14 18 23 54 100 122 121 123 123 120 129 114 112 223 304 340 348 338 328 352 311 300 287 267 254 43 342 338 279 272 305 289 311
20 18 14 14 16 21 21 17 19 26 30 34 21 19 11 15 26 73 127 122 127 143 146 131 121 132 171 301 323 341 336 338 358 342 50 31 57 80 20 81 277 286 291 275 283 281 298
7 5 7 6 4 14 19 22 20 19 18 15 11 14 11 17 30 68 144 146 144 151 189 212 137 118 180 333 140 283 339 354 355 45 48 8 57 250 235 222 249 271 277 273 286 298 288
351 355 357 360 1 353 7 12 14 15 14 12 355 0 11 18 34 48 100 203 183 170 140 174 200 292 7 348 315 278 347 22 23 4 28 20 225 232 243 266 265 278 278 283 288 329 317
347 348 345 351 355 351 360 360 11 11 8 9 11 2 10 9 38 21 44 140 183 157 112 199 218 231 109 316 272 269 359 18 39 10 6 151 256 295 293 298 309 295 246 279 271 306 298
358 353 346 344 355 358 2 359 351 5 5 1 359 12 18 21 8 360 26 67 151 149 80 188 235 218 209 249 253 227 14 21 36 350 346 262 285 315 319 300 105 292 244 291 289 305 287
8 358 346 346 354 353 352 353 347 4 7 359 356 78 30 30 12 4 1 144 157 118 38 166 188 193 301 238 289 196 48 298 234 199 90 259 285 314 308 313 210 247 316 287 294 286 276
15 8 357 344 345 346 347 353 355 357 6 2 6 125 32 16 11 17 80 127 142 50 274 166 161 221 6 255 199 191 60 152 323 33 186 248 273 213 221 290 326 322 337 319 3 84 17
8 9 5 356 347 345 347 353 356 355 1 3 7 179 11 11 6 28 94 136 36 124 64 212 261 16 141 261 266 173 108 1 137 44 343 326 270 248 23 350 351 27 21 343 358 6 238
2 2 2 358 352 346 342 345 351 354 354 0 1 231 302 7 17 29 94 72 94 172 240 28 326 306 225 27 237 295 179 188 176 81 97 62 329 117 24 157 212 221 125 143 273 288 292
354 355 355 354 347 340 335 335 346 352 351 353 340 276 264 358 10 357 155 69 213 192 150 353 314 330 309 219 23 359 229 196 187 173 151 132 261 274 203 165 138 268 47 186 231 257 271
345 347 347 345 343 339 331 332 336 347 353 351 333 269 243 338 339 339 81 238 192 153 138 126 208 142 243 255 0 57 234 208 170 183 156 220 304 245 151 96 32 141 149 23 12 323 299
333 337 339 339 337 336 333 325 326 332 350 352 326 254 192 340 289 254 175 219 235 203 172 169 201 255 226 241 209 228 240 238 158 169 160 141 146 285 7 200 184 357 8 35 132 166 220
324 326 328 329 331 329 328 323 319 323 337 346 335 342 188 334 320 77 167 190 196 199 194 213 193 211 203 200 230 241 235 217 169 154 179 204 173 247 230 266 147 147 183 148 137 272 223
316 317 318 320 322 323 322 320 312 309 325 343 324 256 204 218 216 233 244 264 224 188 205 188 221 206 175 198 245 215 233 251 170 155 171 179 228 324 325 358 342 198 207 160 115 92 206
308 309 310 311 313 314 312 310 306 293 298 325 303 323 212 210 198 158 167 223 235 218 216 192 212 178 153 224 216 258 233 228 198 201 194 169 198 190 227 218 142 211 203 201 171 186 204
301 302 302 304 304 303 302 299 295 278 266 281 240 242 223 226 236 175 174 198 200 230 213 198 243 202 173 217 209 229 237 247 244 223 246 181 239 212 248 261 241 259 264 198 206 227 217
300 300 299 298 300 300 296 290 288 273 235 240 245 224 209 262 198 167 192 212 211 214 164 224 228 200 196 207 196 204 190 179 219 182 171 179 256 162 266 252 253 262 259 245 228 229 257
302 302 302 301 302 305 305 297 286 275 216 233 247 243 243 211 190 178 199 202 218 179 234 231 207 228 220 229 230 239 234 234 219 183 190 170 184 163 259 1 314 277 249 198 185 212 166
290 290 291 292 291 291 291 291 288 268 237 228 239 232 212 253 218 210 205 208 224 209 238 242 221 209 225 226 221 245 251 248 231 229 206 196 184 187 265 28 249 246 243 228 211 220 218
282 284 288 288 285 284 283 282 278 269 252 236 238 244 235 258 239 238 238 243 248 249 252 242 236 236 225 175 188 277 284 307 248 236 220 216 214 229 240 199 299 275 193 172 169 264 196
287 286 285 283 283 283 284 284 282 276 265 245 238 245 249 268 244 246 246 233 242 246 251 232 242 229 191 149 157 210 232 230 250 203 83 193 218 206 146 218 239 237 237 170 120 281 176
289 292 292 290 285 283 282 283 282 277 271 255 250 244 247 260 263 250 234 248 206 194 235 132 166 162 176 160 193 198 231 205 215 195 174 156 193 218 218 236 269 177 163 146 108 245 153
281 282 281 281 286 288 283 281 279 278 273 267 258 252 237 252 258 257 250 242 241 204 197 160 112 184 169 194 204 205 219 211 172 186 178 173 180 195 210 226 259 145 120 176 179 125 152
278 277 276 278 282 279 278 279 278 274 269 259 259 261 254 246 259 272 264 263 253 255 256 192 208 159 182 182 201 208 208 186 185 236 351 212 202 182 196 213 272 166 90 171 153 154 160